Regional Weather Roundup
Issued by NWS Green Bay, WI

Home | Current Version | Previous Version | Text Only | Print | Product List | Glossary On
Versions: 1 2 3 4 5 6 7 8 9 10 11 12 13 14 15 16 17 18 19 20 21 22 23 24 25 26 27 28 29 30 31 32 33 34 35 36 37 38 39 40 41 42 43 44 45 46 47 48 49 50
000
ASUS43 KGRB 240110
RWRGRB

NORTH-CENTRAL AND NORTHEAST WISCONSIN REGIONAL WEATHER ROUNDUP
NATIONAL WEATHER SERVICE GREEN BAY WI
700 PM CST SUN NOV 23 2014

WIZ005-009-010>012-018-019-240200-
NORTH CENTRAL WISCONSIN

CITY           SKY/WX    TMP DP  RH WIND       PRES   REMARKS
IRONWOOD       CLOUDY    43  43 100 CALM      29.31F VSB 1/2
MANITOWISH WTR FOG       41  41 100 CALM      29.33F VSB 1/4
ARBOR VITAE    DRZL/FOG  43  42  97 CALM      29.34F VSB 1/2
EAGLE RIVER    LGT RAIN  41  41 100 CALM      29.34F VSB 1/2
LAND O LAKES   RAIN      44  44 100 SE3       29.35F
RHINELANDER    LGT RAIN  39  39 100 E3        29.35F VSB 1/4
PHILLIPS       FOG       40  40 100 CALM      29.32F VSB 1/4
ANTIGO         FOG       40  40 100 E9        29.35F VSB 1/4
TOMAHAWK       DRZL/FOG  42  41  97 CALM      29.34F VSB 3/4
MERRILL        LGT RAIN  43  43 100 CALM      29.33F VSB 1/4
$$

WIZ013-073-240200-
NORTHEAST WISCONSIN

CITY           SKY/WX    TMP DP  RH WIND       PRES   REMARKS
IRON MOUNTAIN  LGT RAIN  40  39  97 CALM      29.37F VSB 1/4
MARINETTE      CLOUDY    43  41  93 S13       29.38F
OCONTO         CLOUDY    43  43 100 SE7       29.37F
$$

WIZ017-030-035>037-045-240200-
CENTRAL WISCONSIN

CITY           SKY/WX    TMP DP  RH WIND       PRES   REMARKS
MEDFORD        LGT RAIN  43  43 100 SE3       29.32F VSB 1/2
WAUSAU         FOG       44  44 100 E5        29.32F VSB 1/4
MOSINEE        FOG       45  45 100 CALM      29.33F VSB 1/4
MARSHFIELD     LGT RAIN  46  45  96 SE5       29.32F VSB 1/4
WISC RAPIDS    CLOUDY    46  44  93 E3        29.34F
STEVENS POINT  FOG       43  43 100 CALM      29.34F VSB 1
WAUPACA        DRZL/FOG  46  46  97 CALM      29.35F VSB 1/4
SHAWANO        DRZL/FOG  41  40  95 CALM      29.37F VSB<1/4
CLINTONVILLE   DRZL/FOG  43  43 100 CALM      29.36F VSB 1/4
$$

WIZ038-039-048-051-240200-
FOX VALLEY

CITY           SKY/WX    TMP DP  RH WIND       PRES   REMARKS
NWS GREEN BAY  LGT RAIN  45  44  97 SE9       29.37F FOG
APPLETON       LGT RAIN  45  45 100 SE6       29.36F VSB 1/4
OSHKOSH        FOG       46  45  96 E6        29.34F VSB 1/2
FOND DU LAC    LGT RAIN  47  44  90 SE9       29.34F FOG
$$

WIZ022-050-052-240200-
EAST CENTRAL WISCONSIN

CITY           SKY/WX    TMP DP  RH WIND       PRES   REMARKS
STURGEON BAY   CLOUDY    45  43  93 S12       29.40F
MANITOWOC      LGT RAIN  45  45 100 S9        29.39F FOG
SHEBOYGAN      LGT RAIN  45  44  97 SE5       29.38F FOG
$$

LMZ563-521-522-541>543-240200-
LAKESHORE

STATION/POSITION TIME  TEMP    WIND        PRES    VSBY  WAVE
                       AIR SEA DIR/SP/G                  HT/PER
                 (UTC) (F)     (DEG/KT/KT) (MB)    (MI)  (FT/S)
SHEBOYGAN LKSHOR 0100   44 39  190/  7/  9  995.3F
KEWAUNEE LKSHORE 0100   41     170/  6/  7  995.1F
ALGOMA MARINA    0000          170/  8/ 10   N/A
NORTHPORT PIER   0100   44     160/ 10/ 16  996.6F
N MID LAKE BUOY  0100   45 42  160/ 14/ 16  997.0F         4/ 7
SISTER BAY LKSHO 0000          180/ 15/ 21   N/A
STURGEON BAY CG  0100   40     180/  5      997.5   1 1/4  2
CHAMBERS ISLAND  0100   44     140/  8/ 11  996.3S
MENOMINEE LKSHOR 0100   40     160/ 10/ 12  996.2F
$$


USA.gov is the U.S. government's official web portal to all federal, state and local government web resources and services.